Location: Newark
(41.8083°N, 72.2500°W)
Time: 12:04:54
(UTC+00:00)

ISS - Visible Passes

Search period start: 29 September 2020 00:00
Search period end: 09 October 2020 00:00
Orbit: 419 x 421 km, 51.6° (Epoch: 30 September)

Date Brightness Start Highest point End Pass type
(mag) Time Alt. Az. Time Alt. Az. Time Alt. Az.
29 Sep -1.7 00:28:50 10° NW 00:31:00 20° N 00:31:00 20° N visible
29 Sep -1.6 23:41:39 10° NNW 23:44:01 18° N 23:45:32 14° NE visible
30 Sep -0.4 01:18:07 10° NW 01:18:31 13° NW 01:18:31 13° NW visible
30 Sep -1.5 22:54:21 10° NW 22:56:32 16° N 22:58:43 10° NE visible
01 Oct -2.0 00:30:58 10° NW 00:33:04 27° NNW 00:33:04 27° NNW visible
01 Oct -2.3 23:43:49 10° NW 23:46:42 26° NNE 23:47:39 22° NE visible
02 Oct -0.3 01:20:25 10° WNW 01:20:38 11° WNW 01:20:38 11° WNW visible
02 Oct -1.9 22:56:38 10° NW 22:59:15 21° NNE 23:01:53 10° ENE visible
03 Oct -2.3 00:33:06 10° NW 00:35:16 36° NW 00:35:16 36° NW visible
03 Oct -3.4 23:45:52 10° NW 23:49:11 51° NNE 23:49:57 41° ENE visible
04 Oct -2.8 22:58:40 10° NW 23:01:48 35° NNE 23:04:43 11° E visible
05 Oct -1.8 00:35:32 10° WNW 00:37:42 28° WSW 00:37:42 28° WSW visible
05 Oct -3.3 23:48:04 10° WNW 23:51:23 57° SW 23:52:34 34° SSE visible
06 Oct -3.8 23:00:43 10° NW 23:04:06 84° NNE 23:07:28 10° SE visible
07 Oct -0.8 00:39:12 10° WSW 00:40:27 12° SW 00:40:34 12° SW visible
07 Oct -1.3 23:50:49 10° W 23:53:20 20° SW 23:55:42 11° S visible
08 Oct -2.0 23:03:04 10° WNW 23:06:08 32° SW 23:09:11 10° SSE visible
